WXM80 ListenWXM80 Stop

You find our weather info also at:

UK Metoffice

WeatherCloud

Weather Underground

Northeastern Weather Network

AWEKAS

Citizen Weather Observer Program (CWOP)

HAMweather, WeatherForYou, PWS Weather


Weather Underground History page Text

Daily Summary for March 1, 2018 Units:  Metric    English   Both
« Previous Day
Next Day »
Daily Weekly Monthly Yearly Custom
  High: Low: Average:
Temperature: 13 °C 5.4 °C 9.1 °C
Dew Point: 8 °C 3.5 °C 5.4 °C
Humidity: 94 % 66 % 78 %
Wind Speed: 18.8 km/h 0 km/h 3.4 km/h
Wind Gust: 24.1 km/h - -
Wind:- - ESE
Pressure: 1002.9 hPa 992.1 hPa -
Precipitation: 2.03 mm    
Historical Graphs
 
 
Tabular Data for March 1, 2018
Time Temperature Dew Point Pressure Wind Wind Speed Wind Gust Humidity Rainfall Rate (Hourly)
00:02 10.4 °C 5.6 °C 1002.6 hPa WSW 3.4 km/h 5.6 km/h 72 % 0 mm
00:07 10.3 °C 5.7 °C 1002.6 hPa WSW 2.4 km/h 3.7 km/h 73 % 0 mm
00:12 10.3 °C 5.4 °C 1002.6 hPa SW 3.5 km/h 11.1 km/h 72 % 0 mm
00:17 10.3 °C 5.4 °C 1002.6 hPa SSW 2.4 km/h 9.3 km/h 72 % 0 mm
00:22 10.2 °C 5.4 °C 1002.6 hPa South 3.7 km/h 9.3 km/h 72 % 0 mm
00:27 10.2 °C 5.3 °C 1002.6 hPa SW 1.6 km/h 5.6 km/h 72 % 0 mm
00:32 10.2 °C 5.3 °C 1002.6 hPa SW 1 km/h 5.6 km/h 72 % 0 mm
00:37 10.2 °C 5.3 °C 1002.6 hPa SW 3.9 km/h 6.4 km/h 72 % 0 mm
00:42 10.2 °C 5.3 °C 1002.6 hPa SW 3.1 km/h 5.6 km/h 72 % 0 mm
00:47 10.2 °C 5.3 °C 1002.6 hPa SW 2.4 km/h 5.6 km/h 72 % 0 mm
00:52 10.2 °C 5.3 °C 1002.6 hPa SW 2.6 km/h 7.4 km/h 72 % 0 mm
00:57 10.2 °C 5.3 °C 1002.6 hPa SW 0.5 km/h 5.6 km/h 72 % 0 mm
01:02 10.2 °C 5.3 °C 1002.6 hPa SW 4.7 km/h 5.6 km/h 72 % 0 mm
01:07 10.2 °C 5.3 °C 1002.6 hPa SW 2.7 km/h 5.6 km/h 72 % 0 mm
01:13 10.2 °C 5.3 °C 1002.6 hPa SW 1 km/h 5.6 km/h 72 % 0 mm
01:18 10.2 °C 5.4 °C 1002.6 hPa Calm     72 % 0 mm
01:23 10.2 °C 5.3 °C 1002.6 hPa Calm     72 % 0 mm
01:28 10.2 °C 5.3 °C 1002.9 hPa Calm     72 % 0 mm
01:33 10.2 °C 5.3 °C 1002.6 hPa Calm     72 % 0 mm
01:38 10.1 °C 5.3 °C 1002.9 hPa Calm     72 % 0 mm
01:43 10.1 °C 5.3 °C 1002.9 hPa Calm     72 % 0 mm
01:48 10.1 °C 5.2 °C 1002.9 hPa South 1 km/h 3.2 km/h 72 % 0 mm
01:53 10 °C 5.2 °C 1002.6 hPa South 0.2 km/h 1.9 km/h 72 % 0 mm
01:58 10 °C 5.2 °C 1002.6 hPa SSW 1.9 km/h 3.7 km/h 72 % 0 mm
02:03 9.9 °C 5.3 °C 1002.3 hPa SW 2.6 km/h 3.7 km/h 73 % 0 mm
02:09 9.9 °C 5.3 °C 1002.3 hPa SSW 0.5 km/h 3.7 km/h 73 % 0 mm
02:14 9.8 °C 5.2 °C 1002.3 hPa SW 0.3 km/h 3.2 km/h 73 % 0 mm
02:19 9.8 °C 5.2 °C 1002.3 hPa SW 2.4 km/h 5.6 km/h 73 % 0 mm
02:24 9.8 °C 5.2 °C 1002.3 hPa SW 2.3 km/h 5.6 km/h 73 % 0 mm
02:29 9.8 °C 5.2 °C 1001.9 hPa SW 2.1 km/h 3.7 km/h 73 % 0 mm
02:34 9.9 °C 5.3 °C 1001.9 hPa SW 0.8 km/h 3.7 km/h 73 % 0 mm
02:39 9.9 °C 5.3 °C 1001.9 hPa SSW 2.3 km/h 5.6 km/h 73 % 0 mm
02:44 9.9 °C 5.3 °C 1001.9 hPa WSW 2.6 km/h 5.6 km/h 73 % 0 mm
02:49 9.9 °C 5.3 °C 1001.9 hPa SSW 5.6 km/h 7.4 km/h 73 % 0 mm
02:54 9.9 °C 5.1 °C 1001.9 hPa SSW 2.3 km/h 5.6 km/h 72 % 0 mm
02:59 9.9 °C 5.1 °C 1001.9 hPa SW 4.2 km/h 8 km/h 72 % 0 mm
03:04 9.9 °C 5.1 °C 1001.6 hPa SW 6.8 km/h 6.8 km/h 72 % 0 mm
03:10 9.9 °C 5.1 °C 1001.6 hPa SW 3.2 km/h 5.6 km/h 72 % 0 mm
03:15 9.8 °C 5 °C 1001.6 hPa SW 3.7 km/h 3.7 km/h 72 % 0 mm
03:20 9.8 °C 5 °C 1001.6 hPa SW 2.7 km/h 7.4 km/h 72 % 0 mm
03:21 9.8 °C 5 °C 1001.6 hPa SSW 3.9 km/h 7.4 km/h 72 % 0 mm
03:26 9.8 °C 4.9 °C 1001.6 hPa SSW 2.6 km/h 5.6 km/h 72 % 0 mm
03:31 9.7 °C 4.9 °C 1001.6 hPa SW 3.9 km/h 7.4 km/h 72 % 0 mm
03:32 9.7 °C 4.9 °C 1001.6 hPa SW 1.1 km/h 3.7 km/h 72 % 0 mm
03:38 9.7 °C 4.8 °C 1001.6 hPa SW 1.6 km/h 3.7 km/h 72 % 0 mm
03:43 9.6 °C 5 °C 1001.6 hPa SW 0.3 km/h   73 % 0 mm
03:48 9.6 °C 4.9 °C 1001.6 hPa SW 1.4 km/h 4.8 km/h 73 % 0 mm
03:53 9.5 °C 4.9 °C 1001.6 hPa SSW 4 km/h 5.6 km/h 73 % 0 mm
03:58 9.4 °C 4.8 °C 1001.6 hPa SSW 1.1 km/h 3.7 km/h 73 % 0 mm
04:03 9.3 °C 4.7 °C 1001.6 hPa Calm   1.9 km/h 73 % 0 mm
04:08 9.2 °C 4.6 °C 1001.6 hPa Calm     73 % 0 mm
04:13 9.1 °C 4.7 °C 1001.6 hPa Calm     74 % 0 mm
04:18 8.9 °C 4.6 °C 1001.6 hPa Calm     74 % 0 mm
04:22 8.8 °C 4.4 °C 1001.6 hPa SSW 1.3 km/h 3.7 km/h 74 % 0 mm
04:27 8.7 °C 4.3 °C 1001.6 hPa Calm     74 % 0 mm
04:32 8.6 °C 4.4 °C 1001.6 hPa Calm     75 % 0 mm
04:37 8.4 °C 4.4 °C 1001.6 hPa SSW 1.6 km/h 5.6 km/h 76 % 0 mm
04:39 8.4 °C 4.4 °C 1001.6 hPa SSW 0.6 km/h   76 % 0 mm
04:42 8.3 °C 4.3 °C 1001.6 hPa SSW 0.3 km/h 1.9 km/h 76 % 0 mm
04:47 8.2 °C 4.4 °C 1001.6 hPa SSW 0.2 km/h 1.9 km/h 77 % 0 mm
04:52 8.1 °C 4.3 °C 1001.6 hPa Calm     77 % 0 mm
04:57 7.9 °C 4.3 °C 1001.6 hPa Calm   5.6 km/h 78 % 0 mm
05:02 7.8 °C 4.2 °C 1001.6 hPa Calm     78 % 0 mm
05:07 7.8 °C 4.2 °C 1001.6 hPa Calm     78 % 0 mm
05:12 7.7 °C 4.3 °C 1001.6 hPa Calm     79 % 0 mm
05:18 7.7 °C 4.3 °C 1001.6 hPa Calm   1.9 km/h 79 % 0 mm
05:23 7.6 °C 4.2 °C 1001.6 hPa SW 2.9 km/h 3.7 km/h 79 % 0 mm
05:28 7.6 °C 4.2 °C 1001.6 hPa Calm     79 % 0 mm
05:33 7.5 °C 4.3 °C 1001.6 hPa Calm     80 % 0 mm
05:38 7.5 °C 4.3 °C 1001.6 hPa Calm     80 % 0 mm
05:43 7.4 °C 4.2 °C 1001.9 hPa Calm     80 % 0 mm
05:48 7.4 °C 4.2 °C 1001.9 hPa SW 1.6 km/h 5.6 km/h 80 % 0 mm
05:53 7.3 °C 4.3 °C 1001.9 hPa SW 1.8 km/h 3.7 km/h 81 % 0 mm
05:58 7.3 °C 4.2 °C 1001.9 hPa SW 2.1 km/h 3.7 km/h 81 % 0 mm
06:03 7.2 °C 4.2 °C 1002.3 hPa SW 1.3 km/h 5.6 km/h 81 % 0 mm
06:08 7.2 °C 4.1 °C 1002.3 hPa Calm     81 % 0 mm
06:13 7.2 °C 4.3 °C 1002.3 hPa Calm     82 % 0 mm
06:15 7.1 °C 4.2 °C 1002.3 hPa Calm     82 % 0 mm
06:20 7.1 °C 4.2 °C 1002.3 hPa Calm   1.9 km/h 82 % 0 mm
06:25 7.1 °C 4.2 °C 1002.3 hPa SW 0.3 km/h 3.2 km/h 82 % 0 mm
06:30 7 °C 4.3 °C 1002.3 hPa SW 2.7 km/h 5.6 km/h 83 % 0 mm
06:35 6.9 °C 4.3 °C 1002.3 hPa SW 1.6 km/h 4.8 km/h 83 % 0 mm
06:40 6.9 °C 4.3 °C 1002.3 hPa Calm   1.9 km/h 83 % 0 mm
06:45 6.9 °C 4.2 °C 1002.3 hPa Calm     83 % 0 mm
06:50 6.8 °C 3.9 °C 1002.3 hPa Calm     82 % 0 mm
06:55 6.7 °C 3.9 °C 1002.3 hPa Calm     82 % 0 mm
07:00 6.6 °C 3.8 °C 1002.3 hPa Calm     82 % 0 mm
07:05 6.6 °C 3.5 °C 1002.3 hPa Calm     81 % 0 mm
07:10 6.5 °C 3.7 °C 1002.3 hPa Calm     82 % 0 mm
07:15 6.4 °C 3.6 °C 1001.9 hPa Calm     82 % 0 mm
07:20 6.3 °C 3.7 °C 1001.9 hPa Calm     83 % 0 mm
07:25 6.3 °C 3.6 °C 1002.3 hPa Calm     83 % 0 mm
07:30 6.3 °C 4 °C 1002.3 hPa Calm     85 % 0 mm
07:36 6.4 °C 4.2 °C 1002.3 hPa Calm     86 % 0 mm
07:41 6.4 °C 4.3 °C 1002.9 hPa Calm   1.6 km/h 86 % 0 mm
07:46 6.6 °C 4.4 °C 1002.9 hPa SW 0.3 km/h 1.9 km/h 86 % 0 mm
07:51 6.7 °C 4.7 °C 1002.9 hPa Calm     87 % 0 mm
07:56 6.8 °C 4.8 °C 1002.6 hPa Calm     87 % 0 mm
08:01 6.9 °C 4.8 °C 1002.6 hPa Calm     86 % 0 mm
08:06 7 °C 4.8 °C 1002.6 hPa Calm     86 % 0 mm
08:11 7.2 °C 5.2 °C 1002.3 hPa Calm     87 % 0 mm
08:16 7.3 °C 5.3 °C 1002.3 hPa Calm     87 % 0 mm
08:21 7.4 °C 5.4 °C 1002.3 hPa Calm     87 % 0 mm
08:26 7.6 °C 5.6 °C 1002.3 hPa Calm     87 % 0 mm
08:31 7.7 °C 5.5 °C 1001.9 hPa SW 0.2 km/h 1.9 km/h 86 % 0 mm
08:36 7.8 °C 5.4 °C 1002.3 hPa Calm     85 % 0 mm
08:41 7.8 °C 5.4 °C 1001.9 hPa Calm     85 % 0 mm
08:46 7.9 °C 5.6 °C 1001.9 hPa Calm     85 % 0 mm
08:51 8 °C 5.4 °C 1001.6 hPa Calm     84 % 0 mm
08:56 8.2 °C 5.8 °C 1001.9 hPa Calm     85 % 0 mm
09:01 8.3 °C 5.9 °C 1001.9 hPa SW 0.3 km/h 1.9 km/h 85 % 0 mm
09:06 8.4 °C 6.1 °C 1001.9 hPa Calm     85 % 0 mm
09:11 8.5 °C 5.9 °C 1001.9 hPa Calm     84 % 0 mm
09:17 8.6 °C 6.1 °C 1001.9 hPa Calm     84 % 0 mm
09:22 8.8 °C 6.1 °C 1001.9 hPa Calm     83 % 0 mm
09:27 8.9 °C 6.2 °C 1001.9 hPa Calm     83 % 0 mm
09:32 9 °C 6.1 °C 1002.3 hPa Calm   3.7 km/h 82 % 0 mm
09:37 9.1 °C 6.2 °C 1002.3 hPa Calm   1.9 km/h 82 % 0 mm
09:38 9.2 °C 6.1 °C 1002.3 hPa Calm     81 % 0 mm
09:43 9.3 °C 6 °C 1002.3 hPa Calm     80 % 0 mm
09:48 9.3 °C 5.8 °C 1002.3 hPa Calm   1.9 km/h 79 % 0 mm
09:53 9.3 °C 5.6 °C 1002.3 hPa Calm     78 % 0 mm
09:58 9.4 °C 6.1 °C 1002.3 hPa Calm     80 % 0 mm
10:03 9.5 °C 5.8 °C 1002.3 hPa East 2.1 km/h 5.6 km/h 78 % 0 mm
10:08 9.4 °C 5.8 °C 1002.3 hPa East 1 km/h 1.9 km/h 78 % 0 mm
10:14 9.4 °C 5.6 °C 1002.3 hPa Calm     77 % 0 mm
10:19 9.4 °C 5.6 °C 1002.3 hPa East 2.6 km/h 5.6 km/h 77 % 0 mm
10:24 9.4 °C 5.6 °C 1001.9 hPa Calm   1.9 km/h 77 % 0 mm
10:29 9.4 °C 5.6 °C 1001.9 hPa Calm     77 % 0 mm
10:34 9.5 °C 5.8 °C 1002.3 hPa Calm     78 % 0 mm
10:39 9.6 °C 5.8 °C 1002.6 hPa East 0.6 km/h 5.6 km/h 77 % 0 mm
10:44 9.7 °C 5.6 °C 1002.9 hPa East 0.3 km/h 4.8 km/h 76 % 0 mm
10:49 9.7 °C 5.6 °C 1002.9 hPa East 0.3 km/h 3.7 km/h 76 % 0 mm
10:54 9.7 °C 5.7 °C 1002.9 hPa Calm     76 % 0 mm
10:59 9.8 °C 5.8 °C 1002.9 hPa East 0.6 km/h 3.7 km/h 76 % 0 mm
11:04 9.9 °C 5.9 °C 1002.6 hPa East 0.2 km/h 1.9 km/h 76 % 0 mm
11:09 10.2 °C 5.9 °C 1002.3 hPa Calm     75 % 0 mm
11:14 10.3 °C 5.9 °C 1002.6 hPa Calm     74 % 0 mm
11:19 10.6 °C 6.3 °C 1002.6 hPa Calm     75 % 0 mm
11:24 10.8 °C 6.4 °C 1002.6 hPa Calm     74 % 0 mm
11:29 11 °C 6.2 °C 1002.6 hPa Calm     72 % 0 mm
11:34 11.2 °C 6.3 °C 1002.6 hPa Calm     72 % 0 mm
11:39 11.5 °C 6 °C 1002.6 hPa East 0.5 km/h 1.9 km/h 69 % 0 mm
11:44 11.7 °C 5.9 °C 1002.3 hPa East 2.1 km/h 3.7 km/h 68 % 0 mm
11:49 11.9 °C 6.2 °C 1002.3 hPa East 2.1 km/h 5.6 km/h 68 % 0 mm
11:54 12 °C 6.3 °C 1001.9 hPa East 1 km/h 3.7 km/h 68 % 0 mm
11:59 12.1 °C 6.1 °C 1001.9 hPa East 2.4 km/h 7.4 km/h 67 % 0 mm
12:04 12 °C 6.1 °C 1001.9 hPa East 2.3 km/h 5.6 km/h 67 % 0 mm
12:09 11.9 °C 6 °C 1001.9 hPa ENE 2.9 km/h 3.7 km/h 67 % 0 mm
12:14 11.9 °C 5.9 °C 1001.9 hPa ENE 2.1 km/h 5.6 km/h 67 % 0 mm
12:20 11.9 °C 5.9 °C 1001.6 hPa ENE 1.4 km/h 3.7 km/h 67 % 0 mm
12:25 11.8 °C 5.7 °C 1001.6 hPa ENE 2.4 km/h 5.6 km/h 66 % 0 mm
12:30 11.7 °C 5.8 °C 1001.2 hPa Calm   1.9 km/h 67 % 0 mm
12:35 11.7 °C 6.2 °C 1001.2 hPa ENE 0.8 km/h 5.6 km/h 69 % 0 mm
12:40 11.6 °C 6.1 °C 1001.2 hPa ENE 0.6 km/h 3.7 km/h 69 % 0 mm
12:45 11.6 °C 6.1 °C 1001.2 hPa ENE 0.5 km/h 1.9 km/h 69 % 0 mm
12:50 11.6 °C 6.5 °C 1000.6 hPa ENE 4 km/h 4.8 km/h 71 % 0 mm
12:55 11.5 °C 6.4 °C 1000.6 hPa ENE 2.4 km/h 6.4 km/h 71 % 0 mm
13:00 11.5 °C 6.6 °C 1000.9 hPa ENE 2.3 km/h 5.6 km/h 72 % 0 mm
13:05 11.4 °C 6.4 °C 1000.9 hPa ENE 2.3 km/h 5.6 km/h 71 % 0 mm
13:10 11.4 °C 6.3 °C 1000.9 hPa ENE 2.1 km/h 5.6 km/h 71 % 0 mm
13:15 11.4 °C 6.6 °C 1000.9 hPa ENE 1.1 km/h 3.7 km/h 72 % 0 mm
13:20 11.6 °C 6.9 °C 1000.9 hPa ENE 1.6 km/h 3.7 km/h 73 % 0 mm
13:25 11.8 °C 7.7 °C 1000.6 hPa ENE 2.1 km/h 5.6 km/h 76 % 0 mm
13:30 12.2 °C 7.7 °C 1000.6 hPa East 3.4 km/h 7.4 km/h 74 % 0 mm
13:35 12.5 °C 8 °C 1000.6 hPa ENE 3.9 km/h 6.4 km/h 74 % 0 mm
13:40 12.7 °C 7.8 °C 1000.6 hPa ENE 3.5 km/h 8 km/h 72 % 0 mm
13:46 12.9 °C 7.3 °C 1000.2 hPa NE 3.9 km/h 5.6 km/h 69 % 0 mm
13:51 13 °C 7.2 °C 1000.6 hPa ENE 3.7 km/h 5.6 km/h 68 % 0 mm
13:56 12.9 °C 7.4 °C 1000.6 hPa ENE 1.6 km/h 6.4 km/h 69 % 0 mm
14:01 12.9 °C 7.3 °C 1000.6 hPa ENE 2.3 km/h 5.6 km/h 69 % 0 mm
14:06 12.7 °C 7.2 °C 1000.6 hPa East 1.9 km/h 3.7 km/h 69 % 0 mm
14:11 12.5 °C 6.9 °C 1000.2 hPa Calm     69 % 0 mm
14:16 12.4 °C 7.1 °C 1000.2 hPa East 0.3 km/h 1.9 km/h 70 % 0 mm
14:21 12.3 °C 7 °C 1000.2 hPa ENE 2.9 km/h 6.4 km/h 70 % 0 mm
14:26 12.2 °C 6.7 °C 1000.2 hPa ENE 0.8 km/h 3.7 km/h 69 % 0 mm
14:31 12.1 °C 6.7 °C 1000.2 hPa ENE 1.9 km/h 5.6 km/h 70 % 0 mm
14:36 11.9 °C 6.6 °C 1000.2 hPa ENE 2.1 km/h 5.6 km/h 70 % 0 mm
14:41 11.8 °C 6.5 °C 1000.2 hPa ENE 3.2 km/h 6.4 km/h 70 % 0 mm
14:46 11.7 °C 6.6 °C 1000.2 hPa ENE 1.1 km/h 3.7 km/h 71 % 0 mm
14:51 11.6 °C 6.7 °C 1000.2 hPa ENE 0.8 km/h 3.2 km/h 72 % 0 mm
14:56 11.6 °C 6.7 °C 999.9 hPa ENE 1.4 km/h 5.6 km/h 72 % 0 mm
15:01 11.6 °C 6.7 °C 999.9 hPa ENE 3.2 km/h 5.6 km/h 72 % 0 mm
15:06 11.4 °C 6.6 °C 999.9 hPa ENE 4.7 km/h 7.4 km/h 72 % 0 mm
15:11 11.4 °C 6.5 °C 999.5 hPa ENE 2.6 km/h 5.6 km/h 72 % 0 mm
15:16 11.3 °C 6.4 °C 999.9 hPa ENE 4.5 km/h 5.6 km/h 72 % 0 mm
15:21 11.2 °C 6.6 °C 999.9 hPa ENE 2.7 km/h 4.8 km/h 73 % 0 mm
15:26 11.2 °C 6.3 °C 999.9 hPa NE 3.2 km/h 5.6 km/h 72 % 0 mm
15:32 11.2 °C 6.3 °C 999.5 hPa Calm     72 % 0 mm
15:37 11.2 °C 6.3 °C 999.5 hPa ENE 0.8 km/h 3.7 km/h 72 % 0 mm
15:42 11.1 °C 6.4 °C 999.5 hPa Calm     73 % 0 mm
15:47 11.1 °C 6.7 °C 999.9 hPa ENE 0.3 km/h 5.6 km/h 74 % 0 mm
15:52 11.1 °C 6.7 °C 999.5 hPa ENE 0.5 km/h 3.7 km/h 74 % 0 mm
15:57 11.1 °C 6.8 °C 999.2 hPa Calm     75 % 0 mm
16:02 11.3 °C 7 °C 999.5 hPa ENE 0.6 km/h 3.7 km/h 75 % 0 mm
16:07 11.3 °C 7.3 °C 999.2 hPa ENE 3.2 km/h 5.6 km/h 76 % 0 mm
16:12 11.6 °C 7.3 °C 999.2 hPa East 2.6 km/h 7.4 km/h 75 % 0 mm
16:17 11.7 °C 7.2 °C 998.9 hPa East 5.6 km/h 7.4 km/h 74 % 0 mm
16:22 11.8 °C 7.1 °C 998.9 hPa ESE 5.5 km/h 9.7 km/h 73 % 0 mm
16:27 11.6 °C 6.5 °C 998.5 hPa ENE 5.1 km/h 6.4 km/h 71 % 0 mm
16:33 11.3 °C 6.7 °C 998.2 hPa ENE 3.5 km/h 5.6 km/h 73 % 0 mm
16:38 11.1 °C 6.3 °C 998.2 hPa ENE 5 km/h 7.4 km/h 72 % 0 mm
16:43 10.8 °C 6.1 °C 998.2 hPa ENE 4.2 km/h 5.6 km/h 73 % 0 mm
16:48 10.6 °C 6.1 °C 998.2 hPa ENE 1.8 km/h 5.6 km/h 74 % 0 mm
16:53 10.4 °C 5.9 °C 997.9 hPa ENE 4.2 km/h 5.6 km/h 74 % 0 mm
16:58 10.1 °C 5.8 °C 998.2 hPa NE 0.5 km/h 3.7 km/h 75 % 0 mm
17:03 9.9 °C 5.9 °C 998.2 hPa NE 2.9 km/h 5.6 km/h 76 % 0 mm
17:08 9.8 °C 5.7 °C 997.9 hPa NE 1.9 km/h 5.6 km/h 76 % 0 mm
17:13 9.6 °C 5.8 °C 997.9 hPa Calm     77 % 0 mm
17:18 9.5 °C 5.7 °C 997.9 hPa NE 0.5 km/h 3.7 km/h 77 % 0 mm
17:23 9.4 °C 5.6 °C 998.2 hPa NE 1.1 km/h 1.9 km/h 77 % 0 mm
17:28 9.3 °C 5.5 °C 997.9 hPa Calm     77 % 0 mm
17:33 9.3 °C 5.6 °C 997.9 hPa Calm     78 % 0 mm
17:38 9.2 °C 5.6 °C 997.5 hPa ESE 1.9 km/h 3.7 km/h 78 % 0 mm
17:43 9.2 °C 5.6 °C 997.5 hPa ENE 0.5 km/h 3.7 km/h 78 % 0 mm
17:48 9.1 °C 5.7 °C 997.5 hPa East 2.4 km/h 7.4 km/h 79 % 0 mm
17:53 9.2 °C 5.9 °C 997.2 hPa ENE 1 km/h 3.7 km/h 80 % 0 mm
17:58 9.2 °C 5.8 °C 997.2 hPa ENE 1.8 km/h 5.6 km/h 79 % 0 mm
18:03 9.3 °C 5.8 °C 997.2 hPa East 4.5 km/h 11.3 km/h 79 % 0 mm
18:08 9.4 °C 6 °C 996.8 hPa ENE 4.2 km/h 11.1 km/h 79 % 0 mm
18:13 9.6 °C 5.9 °C 996.8 hPa ENE 4.8 km/h 7.4 km/h 78 % 0 mm
18:19 9.7 °C 5.8 °C 996.8 hPa ENE 5.1 km/h 7.4 km/h 77 % 0 mm
18:24 9.6 °C 5.7 °C 996.8 hPa ENE 4.2 km/h 5.6 km/h 77 % 0 mm
18:29 9.5 °C 5.7 °C 996.8 hPa East 3.7 km/h 9.3 km/h 77 % 0 mm
18:34 9.5 °C 5.8 °C 996.8 hPa East 1.6 km/h 5.6 km/h 78 % 0 mm
18:39 9.6 °C 6.1 °C 996.5 hPa East 0.5 km/h 5.6 km/h 79 % 0 mm
18:44 9.7 °C 5.9 °C 996.5 hPa ESE 2.4 km/h 9.3 km/h 77 % 0 mm
18:49 10 °C 5.9 °C 996.5 hPa East 6.3 km/h 11.3 km/h 76 % 0 mm
18:54 10.4 °C 6.2 °C 996.5 hPa ESE 5 km/h 7.4 km/h 75 % 0 mm
18:59 10.7 °C 6.2 °C 996.5 hPa East 1.6 km/h 5.6 km/h 74 % 0 mm
19:04 10.8 °C 6.1 °C 996.2 hPa ESE 4.5 km/h 11.1 km/h 73 % 0 mm
19:09 10.9 °C 6.2 °C 996.2 hPa East 5 km/h 7.4 km/h 73 % 0 mm
19:14 11 °C 6.3 °C 995.8 hPa East 6 km/h 11.1 km/h 73 % 0 mm
19:19 11.1 °C 6.4 °C 995.8 hPa East 5.5 km/h 7.4 km/h 73 % 0 mm
19:24 11.1 °C 6.4 °C 995.8 hPa East 3.2 km/h 5.6 km/h 73 % 0 mm
19:29 10.9 °C 6.1 °C 995.8 hPa NE 4.2 km/h 8 km/h 72 % 0 mm
19:34 10.6 °C 5.7 °C 995.5 hPa ENE 5.1 km/h 8 km/h 72 % 0 mm
19:39 10.1 °C 5.5 °C 995.5 hPa ENE 7.2 km/h 11.1 km/h 73 % 0 mm
19:44 9.6 °C 5.2 °C 995.5 hPa ENE 4.5 km/h 5.6 km/h 74 % 0 mm
19:49 9.3 °C 5.3 °C 995.5 hPa ENE 3.7 km/h 6.4 km/h 76 % 0 mm
19:54 8.8 °C 5 °C 995.5 hPa ENE 6.8 km/h 13 km/h 77 % 0 mm
19:59 8.3 °C 4.7 °C 995.1 hPa ENE 9.7 km/h 14.5 km/h 78 % 0 mm
20:04 7.8 °C 4.6 °C 995.5 hPa ENE 7.7 km/h 8 km/h 80 % 0 mm
20:10 7.4 °C 4.5 °C 995.1 hPa East 8.7 km/h 11.1 km/h 82 % 0 mm
20:15 7.1 °C 4.4 °C 995.1 hPa East 6.3 km/h 9.3 km/h 83 % 0 mm
20:20 7 °C 4.5 °C 995.1 hPa ENE 3.5 km/h 6.4 km/h 84 % 0 mm
20:25 6.9 °C 4.6 °C 995.1 hPa ENE 6.3 km/h 9.3 km/h 85 % 0 mm
20:30 6.8 °C 4.5 °C 995.1 hPa ENE 8.2 km/h 13 km/h 85 % 0 mm
20:35 6.7 °C 4.6 °C 994.8 hPa ENE 9.7 km/h 16.7 km/h 86 % 0 mm
20:40 6.7 °C 4.5 °C 994.8 hPa East 6.1 km/h 8 km/h 86 % 0 mm
20:45 6.7 °C 4.7 °C 994.8 hPa ENE 11.7 km/h 14.8 km/h 87 % 0 mm
20:50 6.6 °C 4.6 °C 994.8 hPa East 8.2 km/h 11.1 km/h 87 % 0 mm
20:55 6.4 °C 4.4 °C 994.5 hPa East 9.5 km/h 11.1 km/h 87 % 0 mm
21:00 6.2 °C 4.3 °C 994.5 hPa East 8.9 km/h 11.1 km/h 88 % 0 mm
21:05 6.1 °C 4.4 °C 994.1 hPa East 10.5 km/h 18.5 km/h 89 % 0 mm
21:10 5.9 °C 4.3 °C 994.1 hPa East 10.8 km/h 13 km/h 89 % 0 mm
21:15 5.9 °C 4.4 °C 994.1 hPa East 11.1 km/h 18.5 km/h 90 % 0 mm
21:20 5.8 °C 4.3 °C 994.1 hPa East 10.1 km/h 14.8 km/h 90 % 0 mm
21:25 5.9 °C 4.6 °C 994.1 hPa East 10 km/h 13 km/h 91 % 0 mm
21:30 5.9 °C 4.6 °C 993.8 hPa East 10.5 km/h 13 km/h 91 % 0 mm
21:35 6.1 °C 4.7 °C 993.8 hPa ENE 8.9 km/h 14.5 km/h 91 % 0 mm
21:40 6.1 °C 4.8 °C 993.8 hPa East 10.6 km/h 13 km/h 91 % 0 mm
21:45 6.2 °C 4.8 °C 993.8 hPa ENE 8.5 km/h 14.8 km/h 91 % 0 mm
21:50 6.1 °C 4.8 °C 993.8 hPa East 7.7 km/h 13 km/h 91 % 0 mm
21:55 6.1 °C 4.7 °C 993.8 hPa ENE 11.7 km/h 14.8 km/h 91 % 0 mm
22:00 6 °C 4.7 °C 993.8 hPa ENE 11.6 km/h 14.8 km/h 91 % 0 mm
22:05 5.9 °C 4.6 °C 993.5 hPa ENE 10.8 km/h 16.7 km/h 91 % 0 mm
22:10 5.9 °C 4.7 °C 993.5 hPa ENE 10.9 km/h 18.5 km/h 92 % 0 mm
22:15 5.9 °C 4.7 °C 993.8 hPa ENE 14 km/h 20.4 km/h 92 % 0 mm
22:20 5.9 °C 4.7 °C 993.8 hPa ENE 12.9 km/h 20.9 km/h 92 % 0 mm
22:25 5.9 °C 4.9 °C 993.8 hPa ENE 12.9 km/h 19.3 km/h 93 % 0 mm
22:30 5.9 °C 4.9 °C 993.8 hPa East 14.2 km/h 17.7 km/h 93 % 0 mm
22:35 5.9 °C 4.9 °C 993.8 hPa ENE 14.5 km/h 20.9 km/h 93 % 0 mm
22:40 5.9 °C 4.9 °C 993.8 hPa ENE 14.5 km/h 20.9 km/h 93 % 0 mm
22:45 5.9 °C 4.8 °C 993.5 hPa East 16.1 km/h 22.5 km/h 93 % 0 mm
22:50 5.9 °C 4.8 °C 993.5 hPa East 16.1 km/h 24.1 km/h 93 % 0 mm
22:51 5.9 °C 4.8 °C 993.5 hPa East 16.1 km/h 18.5 km/h 93 % 0.51 mm
22:56 5.9 °C 4.8 °C 993.5 hPa ENE 17.5 km/h 24.1 km/h 93 % 0.51 mm
23:01 5.8 °C 4.8 °C 993.1 hPa East 18.8 km/h 24.1 km/h 93 % 0.76 mm
23:06 5.8 °C 4.8 °C 993.1 hPa ENE 17.2 km/h 24.1 km/h 93 % 0.76 mm
23:11 5.8 °C 4.7 °C 993.1 hPa East 17.9 km/h 20.4 km/h 93 % 1.02 mm
23:16 5.7 °C 4.7 °C 992.8 hPa ENE 16.4 km/h 18.5 km/h 93 % 1.27 mm
23:21 5.7 °C 4.6 °C 992.8 hPa ENE 16.7 km/h 20.4 km/h 93 % 1.52 mm
23:26 5.6 °C 4.5 °C 992.4 hPa ENE 15.1 km/h 22.2 km/h 93 % 1.52 mm
23:31 5.5 °C 4.4 °C 992.4 hPa East 15.6 km/h 20.4 km/h 93 % 1.78 mm
23:36 5.4 °C 4.6 °C 992.1 hPa East 15.6 km/h 18.5 km/h 94 % 1.52 mm
23:41 5.4 °C 4.6 °C 992.4 hPa East 16.3 km/h 18.5 km/h 94 % 1.52 mm
23:47 5.4 °C 4.6 °C 992.1 hPa ENE 17.1 km/h 20.4 km/h 94 % 1.78 mm
23:52 5.4 °C 4.5 °C 992.1 hPa East 17.4 km/h 24.1 km/h 94 % 1.52 mm
23:57 5.4 °C 4.6 °C 992.1 hPa East 16.4 km/h 22.2 km/h 94 % 1.52 mm
Crab Meadow Weather
Compliments of Weather Underground - 3 mb

Script developed by  Jim McMurry - jmcmurry@mwt.net Adapted for the template by  Wim van der Kuil - Leuven-Template.eu

Weather Terms: Winter Storm Watch - Conditions are favorable for hazardous winter weather conditions including heavy snow, blizzard conditions, or significant accumulations of freezing rain or sleet. These watches are issued by the Weather Service Forecast Office in Upton and are usually issued 12 to 36 hours in advance of the event.